, AK

(GMT )
Tin City

Weather History for PATC - October, 2012

Change the Weather History Date:

Saturday, October 20, 2012

  Actual Average Record
Temperature  
Mean Temperature 32 °F -  
Max Temperature 34 °F 28 °F 39 °F (2004)
Min Temperature 31 °F 21 °F 1 °F (2002)
Degree Days  
Heating Degree Days 32    
Moisture  
Dew Point 34 °F    
Average Humidity 100    
Maximum Humidity 100    
Minimum Humidity 95    
Precipitation  
Precipitation 0.00 in - - ()
Sea Level Pressure  
Sea Level Pressure 30.35 in    
Wind  
Wind Speed 18 mph (South)    
Max Wind Speed 33 mph    
Max Gust Speed 38 mph    
Visibility 5 miles    
Events Fog , Rain    
Averages and records for this station are not official NWS values.
T = Trace of Precipitation, MM = Missing Value Source: NWS Daily Summary

Daily Weather History Graph

Daily Weather History Graph

Search for Another Location

Airport or City:

Trip Planner

Search our weather history database for the weather conditions in past years. The results will help you decide how hot, cold, wet, or windy it might be!

Date:

Astronomy

Oct. 20, 2012 Rise Set
Actual Time 10:25 AM AKDT 7:25 PM AKDT
Civil Twilight 9:32 AM AKDT 8:18 PM AKDT
Nautical Twilight 8:33 AM AKDT 9:16 PM AKDT
Astronomical Twilight 7:35 AM AKDT 10:15 PM AKDT
Moon 5:29 PM AKDT (10/20) 11:15 PM AKDT (10/20)
Length of Visible Light 10h 46m
Length of Day
9h 00m
Waxing Crescent, 35% of the Moon is Illuminated
Oct 20
Waxing Crescent
Oct 21
First Quarter
Oct 29
Full
Nov 6
Last Quarter
Nov 13
New

Hourly Weather History & Observations

Time (AKDT) Temp. Windchill Dew Point Humidity Pressure Visibility Wind Dir Wind Speed Gust Speed Precip Events Conditions
12:05 AM - - - N/A% 30.38 in 10.0 mi SSE 9.2 mph - N/A Rain Light Rain Showers
12:55 AM 31.1 °F 23.7 °F 31.6 °F 100% 30.38 in 10.0 mi South 8.1 mph - N/A Rain Light Freezing Rain
1:40 AM 32.0 °F 22.5 °F 32.0 °F 100% 30.38 in 0.2 mi SSE 12.7 mph - N/A Fog , Rain Light Rain
1:55 AM 31.5 °F 20.9 °F 32.0 °F 100% 30.38 in 0.2 mi SSE 15.0 mph - N/A Fog , Rain Light Freezing Rain
2:55 AM 31.8 °F 19.9 °F 32.5 °F 100% 30.38 in 0.2 mi South 19.6 mph - N/A Fog , Rain Light Freezing Rain
3:55 AM - - - N/A% 30.37 in 0.2 mi South 17.3 mph 25.3 mph N/A Fog , Rain Light Rain
4:55 AM 33.1 °F 23.0 °F 34.0 °F 100% 30.38 in 0.2 mi South 15.0 mph - N/A Fog , Rain Light Rain
5:55 AM 33.6 °F 23.3 °F 34.3 °F 100% 30.37 in 0.5 mi SSW 16.1 mph - N/A Fog , Rain Light Rain
6:00 AM 33.8 °F 23.5 °F 33.8 °F 100% 30.37 in 0.8 mi SSW 16.1 mph - N/A Rain Light Rain
6:20 AM 33.8 °F 23.9 °F 33.8 °F 100% 30.37 in 10.0 mi SSW 15.0 mph - N/A   Mostly Cloudy
6:55 AM 33.4 °F 23.5 °F 33.8 °F 100% 30.37 in 10.0 mi South 15.0 mph - N/A   Mostly Cloudy
7:10 AM 33.8 °F 23.2 °F 33.8 °F 100% 30.37 in 0.2 mi South 17.3 mph - N/A Fog , Rain Light Rain
7:55 AM 33.8 °F 22.8 °F 34.5 °F 100% 30.37 in 0.2 mi South 18.4 mph - N/A Fog , Rain Light Rain Showers
8:55 AM 33.8 °F 22.5 °F 34.5 °F 100% 30.36 in 0.2 mi SSW 19.6 mph - N/A Fog , Rain Light Rain
9:55 AM 33.6 °F 21.6 °F 34.5 °F 100% 30.37 in 0.2 mi SSW 21.9 mph - N/A Fog , Rain Light Rain
10:55 AM 33.6 °F 21.9 °F 34.5 °F 100% 30.37 in 0.2 mi SSW 20.7 mph - N/A Fog , Rain Light Rain Showers
11:30 AM 33.8 °F 22.5 °F 33.8 °F 100% 30.38 in 0.5 mi South 19.6 mph - N/A Fog , Rain Light Rain Showers
11:50 AM 33.8 °F 22.2 °F 33.8 °F 100% 30.37 in 1.2 mi South 20.7 mph - N/A   Light Drizzle
11:55 AM 33.8 °F 21.6 °F 34.5 °F 100% 30.37 in 4.0 mi South 23.0 mph - N/A Rain Light Rain Showers
12:55 PM 33.6 °F 21.1 °F 34.3 °F 100% 30.35 in 7.0 mi South 24.2 mph - N/A   Mostly Cloudy
1:55 PM 33.6 °F 20.3 °F 34.2 °F 100% 30.35 in 9.0 mi South 27.6 mph - N/A   Overcast
2:55 PM 33.4 °F 20.8 °F 34.0 °F 100% 30.34 in 5.0 mi South 24.2 mph - N/A   Overcast
3:55 PM 34.2 °F 21.0 °F 33.6 °F 98% 30.33 in 10.0 mi South 27.6 mph - N/A   Overcast
4:55 PM 33.8 °F 20.5 °F 33.6 °F 99% 30.32 in 9.0 mi South 27.6 mph - N/A   Overcast
5:55 PM 34.2 °F 21.3 °F 33.6 °F 98% 30.31 in 10.0 mi SSW 26.5 mph - N/A   Overcast
6:55 PM 34.0 °F 21.0 °F 33.8 °F 99% 30.31 in 10.0 mi South 26.5 mph 34.5 mph N/A   Overcast
7:55 PM 33.8 °F 20.5 °F 34.0 °F 100% 30.30 in 7.0 mi SSW 27.6 mph - N/A   Mostly Cloudy
8:55 PM 34.0 °F 20.3 °F 33.4 °F 98% 30.28 in 10.0 mi South 29.9 mph - N/A   Mostly Cloudy
9:55 PM 34.0 °F 19.9 °F 32.7 °F 95% 30.27 in 10.0 mi South 32.2 mph 36.8 mph N/A   Mostly Cloudy
10:55 PM 33.6 °F 20.1 °F 33.8 °F 100% 30.26 in 8.0 mi South 28.8 mph 34.5 mph N/A   Mostly Cloudy
11:55 PM 33.6 °F 19.2 °F 34.0 °F 100% 30.25 in 5.0 mi South 33.4 mph 38.0 mph N/A   Overcast